Location: Twentynine Palms Airport
(34.1316°N, 115.9458°W)
Time: 23:59:41
(UTC-07:00)

Amateur Radio Satellites - All Passes

Search period start: 02 September 2014 23:29
Search period end: 03 September 2014 23:29
Location: Twentynine Palms Airport, 34.1316°N, 115.9458°W

Satellite Date Start Highest point End Downlink Frequencies (MHz)
Time Altitude Azimuth
AO-40 03 Sep 00:06:37 01:49:50 29° 223° (SW) 05:33:21 Beacon 2401.320
Sapphire 03 Sep 00:20:04 00:22:53 14° 49° (NE) 00:25:42 437.095 MHz 1200 baud AX-25 AFSK
KITSAT 1 03 Sep 00:28:46 00:35:13 26° 312° (NW) 00:41:43 435.175 FM
PCSat 03 Sep 00:47:55 00:52:26 26° 55° (NE) 00:56:54 145.825 MHz
Oscar 16 03 Sep 01:26:47 01:31:00 25° 96° (E) 01:35:11 437.025 USB, Beacon 2401.1428
Uribyol 2 03 Sep 01:41:59 01:44:40 14° 93° (E) 01:47:21 436.500 FM
Sapphire 03 Sep 02:01:28 02:06:54 77° 246° (WSW) 02:12:18 437.095 MHz 1200 baud AX-25 AFSK
AO-27 03 Sep 02:01:50 02:05:49 22° 95° (E) 02:09:48 436.795 MHz FM
SO-50 03 Sep 02:24:31 02:28:53 61° 116° (ESE) 02:33:22 436.795 FM
AO-Echo 03 Sep 02:28:52 02:33:24 46° 100° (E) 02:37:58 ?
Oscar 19 03 Sep 02:29:42 02:34:54 77° 284° (WNW) 02:40:03 437.125 CW, 437.150 USB
PCSat 03 Sep 02:30:56 02:35:53 37° 251° (WSW) 02:40:49 145.825 MHz
JAS-1B 03 Sep 02:45:52 02:52:02 54° 100° (E) 02:57:36 435.800 - 435.900 CW/SSB
Gurwin Techsat 1B 03 Sep 02:49:44 02:54:20 29° 97° (E) 02:58:54 435.225 FM
Oscar 16 03 Sep 03:05:43 03:10:19 33° 290° (WNW) 03:14:53 437.025 USB, Beacon 2401.1428
ITAMSAT 1 03 Sep 03:10:14 03:15:25 74° 285° (WNW) 03:20:35 435.822 SSB
Uribyol 2 03 Sep 03:19:21 03:24:26 56° 287° (WNW) 03:29:30 436.500 FM
AO-7 03 Sep 03:33:25 03:37:57 16° 93° (E) 03:42:26 29.400 - 29.500 MHz
TMSAT-1 03 Sep 03:38:22 03:43:38 66° 102° (ESE) 03:48:53 436.925 FM
AO-27 03 Sep 03:40:39 03:45:22 36° 289° (WNW) 03:50:04 436.795 MHz FM
OPAL 03 Sep 03:59:05 04:03:53 45° 70° (ENE) 04:08:46 ?
UOSAT-12 03 Sep 04:03:50 04:08:13 48° 115° (ESE) 04:12:43 437.025 FM, 437.400 FM
SO-50 03 Sep 04:07:32 04:09:51 14° 313° (NW) 04:12:12 436.795 FM
AO-Echo 03 Sep 04:09:08 04:11:46 15° 294° (WNW) 04:14:25 ?
Gurwin Techsat 1B 03 Sep 04:29:41 04:34:10 29° 291° (WNW) 04:38:39 435.225 FM
JAS-1B 03 Sep 04:37:59 04:42:02 18° 300° (WNW) 04:45:49 435.800 - 435.900 CW/SSB
Uosat F 03 Sep 05:00:57 05:05:58 76° 103° (ESE) 05:10:58 435.120 FM
TMSAT-1 03 Sep 05:20:28 05:22:56 13° 296° (WNW) 05:25:25 436.925 FM
AO-7 03 Sep 05:23:11 05:31:30 86° 288° (WNW) 05:39:47 29.400 - 29.500 MHz
OPAL 03 Sep 05:39:37 05:42:56 18° 264° (W) 05:46:18 ?
UOSAT-12 03 Sep 05:45:31 05:48:37 18° 311° (NW) 05:51:47 437.025 FM, 437.400 FM
STRAND 1 03 Sep 05:50:07 05:53:58 22° 67° (ENE) 05:57:49 ?
RS-15 03 Sep 05:54:21 06:04:03 36° 106° (ESE) 06:13:30 29.354 - 29.394 USB, Beacon 29.352 USB
Saudisat 1A 03 Sep 06:00:56 06:04:22 22° 52° (NE) 06:07:46 436.775 MHz
JAS-2 03 Sep 06:07:26 06:12:26 36° 99° (E) 06:17:53 435.800 - 435.900 CW/SSB, 435.910 FM
KITSAT 1 03 Sep 06:29:55 06:35:20 19° 43° (NE) 06:40:43 435.175 FM
Uosat F 03 Sep 06:43:02 06:44:04 11° 297° (WNW) 06:45:06 435.120 FM
Hamsat 03 Sep 06:52:39 06:56:57 63° 284° (WNW) 07:01:10 145.90 MHz
AO-7 03 Sep 07:18:23 07:23:06 17° 305° (NW) 07:27:49 29.400 - 29.500 MHz
STRAND 1 03 Sep 07:28:14 07:32:53 36° 262° (W) 07:37:34 ?
ISS 03 Sep 07:30:23 07:31:51 12° 126° (SE) 07:33:19 145.800 FM
Saudisat 1A 03 Sep 07:40:01 07:43:58 33° 247° (WSW) 07:47:53 436.775 MHz
JAS-2 03 Sep 07:53:06 07:57:22 24° 291° (WNW) 08:01:56 435.800 - 435.900 CW/SSB, 435.910 FM
RS-15 03 Sep 08:05:00 08:15:49 56° 305° (NW) 08:26:32 29.354 - 29.394 USB, Beacon 29.352 USB
SO-67 03 Sep 08:16:33 08:19:45 35° 285° (WNW) 08:22:55 435.3500 MHz FM
KITSAT 1 03 Sep 08:23:45 08:31:52 87° 64° (ENE) 08:39:55 435.175 FM
HO-68 03 Sep 08:39:11 08:44:31 22° 95° (E) 08:49:49 435.675 MHz FM
ISS 03 Sep 09:05:02 09:08:14 47° 320° (NW) 09:11:28 145.800 FM
PANSAT 03 Sep 09:36:17 09:39:14 21° 164° (SSE) 09:42:12 not established
KITSAT 1 03 Sep 10:21:55 10:26:11 15° 259° (W) 10:30:26 435.175 FM
RS-15 03 Sep 10:25:09 10:31:19 16° 333° (NNW) 10:37:31 29.354 - 29.394 USB, Beacon 29.352 USB
HO-68 03 Sep 10:25:31 10:32:31 58° 290° (WNW) 10:39:29 435.675 MHz FM
UKube-1 03 Sep 10:32:41 10:36:56 55° 286° (WNW) 10:41:10 145.840 MHz, 145.915 MHz
Oscar 11 03 Sep 10:34:31 10:38:54 82° 283° (WNW) 10:43:14 145.825 FM, Beacon 2401.500 USB
SO-50 03 Sep 11:00:06 11:03:53 23° 52° (NE) 11:07:41 436.795 FM
MaSat-1 03 Sep 11:10:00 11:13:21 19° 101° (ESE) 11:16:51 437.345 MHz
FUNcube-1 03 Sep 11:11:00 11:15:36 84° 283° (WNW) 11:20:13 145.950 - 145.970 MHz USB
PANSAT 03 Sep 11:15:28 11:19:01 34° 177° (S) 11:22:33 not established
Oscar 19 03 Sep 12:08:02 12:09:16 11° 62° (ENE) 12:10:30 437.125 CW, 437.150 USB
UOSAT-12 03 Sep 12:37:53 12:41:02 17° 49° (NE) 12:44:09 437.025 FM, 437.400 FM
SO-50 03 Sep 12:40:05 12:44:32 38° 247° (WSW) 12:49:01 436.795 FM
Oscar 16 03 Sep 12:40:20 12:44:30 25° 68° (ENE) 12:48:41 437.025 USB, Beacon 2401.1428
MaSat-1 03 Sep 12:45:17 12:49:55 43° 297° (WNW) 12:54:49 437.345 MHz
RS-15 03 Sep 12:48:05 12:50:53 11° 12° (NNE) 12:53:41 29.354 - 29.394 USB, Beacon 29.352 USB
ITAMSAT 1 03 Sep 12:49:00 12:50:51 12° 63° (ENE) 12:52:41 435.822 SSB
PANSAT 03 Sep 12:55:28 12:58:51 29° 190° (S) 13:02:14 not established
Uribyol 2 03 Sep 12:56:38 12:59:36 16° 65° (ENE) 13:02:35 436.500 FM
AO-27 03 Sep 13:16:37 13:20:41 24° 68° (ENE) 13:24:45 436.795 MHz FM
JAS-1B 03 Sep 13:23:15 13:32:10 43° 69° (ENE) 13:40:11 435.800 - 435.900 CW/SSB
AO-Echo 03 Sep 13:38:09 13:42:51 42° 73° (ENE) 13:47:25 ?
Oscar 19 03 Sep 13:42:43 13:47:53 79° 257° (WSW) 13:53:05 437.125 CW, 437.150 USB
Gurwin Techsat 1B 03 Sep 14:07:15 14:11:55 33° 70° (ENE) 14:16:36 435.225 FM
UOSAT-12 03 Sep 14:16:54 14:21:27 50° 245° (WSW) 14:25:55 437.025 FM, 437.400 FM
Oscar 16 03 Sep 14:19:05 14:23:39 32° 263° (W) 14:28:16 437.025 USB, Beacon 2401.1428
ITAMSAT 1 03 Sep 14:24:32 14:29:41 72° 258° (WSW) 14:34:51 435.822 SSB
AO-7 03 Sep 14:29:08 14:34:14 18° 55° (NE) 14:39:18 29.400 - 29.500 MHz
Uribyol 2 03 Sep 14:33:34 14:38:35 54° 259° (W) 14:43:38 436.500 FM
PANSAT 03 Sep 14:36:36 14:38:31 13° 201° (SSW) 14:40:26 not established
AO-27 03 Sep 14:55:19 14:59:58 34° 262° (W) 15:04:39 436.795 MHz FM
TMSAT-1 03 Sep 14:55:22 15:00:37 71° 75° (ENE) 15:05:53 436.925 FM
Sapphire 03 Sep 14:57:31 15:01:43 24° 106° (ESE) 15:05:56 437.095 MHz 1200 baud AX-25 AFSK
RS-15 03 Sep 14:58:44 15:08:25 33° 45° (NE) 15:18:21 29.354 - 29.394 USB, Beacon 29.352 USB
JAS-1B 03 Sep 15:13:16 15:22:26 44° 261° (W) 15:30:49 435.800 - 435.900 CW/SSB
AO-Echo 03 Sep 15:18:26 15:21:43 17° 265° (W) 15:24:56 ?
PCSat 03 Sep 15:25:22 15:30:32 48° 111° (ESE) 15:35:44 145.825 MHz
ISS 03 Sep 15:36:51 15:39:54 33° 38° (NE) 15:42:57 145.800 FM
Gurwin Techsat 1B 03 Sep 15:47:31 15:51:51 26° 264° (W) 15:56:13 435.225 FM
Uosat F 03 Sep 16:10:28 16:15:26 70° 75° (ENE) 16:20:25 435.120 FM
OPAL 03 Sep 16:13:59 16:17:15 17° 95° (E) 16:20:30 ?
AO-7 03 Sep 16:17:33 16:25:54 89° 253° (WSW) 16:34:17 29.400 - 29.500 MHz
TMSAT-1 03 Sep 16:39:34 16:40:58 11° 269° (W) 16:42:21 436.925 FM
Sapphire 03 Sep 16:39:51 16:44:51 39° 301° (WNW) 16:49:54 437.095 MHz 1200 baud AX-25 AFSK
PCSat 03 Sep 17:10:10 17:14:10 21° 307° (NW) 17:18:13 145.825 MHz
RS-15 03 Sep 17:10:31 17:21:34 70° 246° (WSW) 17:33:07 29.354 - 29.394 USB, Beacon 29.352 USB
ISS 03 Sep 17:14:03 17:16:27 19° 232° (SW) 17:18:50 145.800 FM
Hamsat 03 Sep 17:41:56 17:46:09 55° 75° (ENE) 17:50:25 145.90 MHz
OPAL 03 Sep 17:51:19 17:56:20 49° 289° (WNW) 18:01:18 ?
Uosat F 03 Sep 17:54:24 17:54:38 10° 268° (W) 17:54:51 435.120 FM
JAS-2 03 Sep 18:00:14 18:06:24 87° 76° (ENE) 18:11:55 435.800 - 435.900 CW/SSB, 435.910 FM
AO-7 03 Sep 18:15:24 18:19:31 14° 268° (W) 18:23:39 29.400 - 29.500 MHz
SO-67 03 Sep 18:45:45 18:48:55 34° 74° (ENE) 18:52:05 435.3500 MHz FM
HO-68 03 Sep 19:07:50 19:09:54 11° 55° (NE) 19:11:58 435.675 MHz FM
RS-15 03 Sep 19:29:10 19:32:00 11° 263° (W) 19:34:51 29.354 - 29.394 USB, Beacon 29.352 USB
STRAND 1 03 Sep 19:42:04 19:47:11 80° 284° (WNW) 19:52:17 ?
Saudisat 1A 03 Sep 20:05:54 20:07:40 12° 108° (ESE) 20:09:27 436.775 MHz
HO-68 03 Sep 20:49:17 20:56:22 74° 72° (ENE) 21:03:30 435.675 MHz FM
KITSAT 1 03 Sep 20:56:03 21:00:51 17° 102° (ESE) 21:05:38 435.175 FM
MaSat-1 03 Sep 21:07:42 21:10:28 16° 54° (NE) 21:12:59 437.345 MHz
UKube-1 03 Sep 21:24:12 21:28:32 78° 76° (ENE) 21:32:52 145.840 MHz, 145.915 MHz
Oscar 11 03 Sep 21:25:45 21:29:55 47° 74° (ENE) 21:34:06 145.825 FM, Beacon 2401.500 USB
Saudisat 1A 03 Sep 21:42:28 21:46:45 52° 302° (WNW) 21:51:04 436.775 MHz
FUNcube-1 03 Sep 22:03:57 22:07:57 47° 74° (ENE) 22:12:04 145.950 - 145.970 MHz USB
HO-68 03 Sep 22:40:21 22:44:36 17° 267° (W) 22:48:52 435.675 MHz FM
MaSat-1 03 Sep 22:43:51 22:47:36 32° 255° (WSW) 22:50:50 437.345 MHz
KITSAT 1 03 Sep 22:47:09 22:55:15 81° 297° (WNW) 23:03:23 435.175 FM
Oscar 11 03 Sep 23:04:44 23:06:19 12° 268° (W) 23:07:53 145.825 FM, Beacon 2401.500 USB
